Location: Waco, TX
(31.5480°N, 97.1670°W)
Time: 09:56:36
(UTC-05:00)

ISS - Pass Details

Date: 21 October 2018
Orbit: 403 x 408 km, 51.6° (Epoch: 17 October)

Event Time Altitude Azimuth Distance (km) Brightness Sun altitude
Rises 08:51:50 0° 233° (SW) 2,306 -0.3 14.5°
Reaches altitude 10° 08:53:56 10° 238° (WSW) 1,451 -1.3 14.9°
Maximum altitude 08:57:07 54° 317° (NW) 497 -3.5 15.6°
Drops below altitude 10° 09:00:21 10° 36° (NE) 1,461 -0.8 16.2°
Sets 09:02:28 0° 41° (NE) 2,325 0.2 16.6°
